Flight Briefing for CPX726

Departure Arrival
El Nuevo Dorado International Airport (SKBO)
Click to view FAA NOTAMS
Miami International Airport (KMIA)
Click to view FAA NOTAMS
Departure Time Arrival Time
0510 UTC 0815 UTC
Aircraft Distance
B767-300BDSF 1372nm
Departure METAR Arrival METAR
SKBO 221100Z 05004KT 9999 FEW015 BKN070 11/10 A3033 KMIA 221053Z 33009G15KT 10SM CLR 15/12 A3005 RMK AO2 SLP176 T01500117
Suggested Route
UCA UA301 URSUS FLIPR5


View recent IFR Routes data
Notes



Charts and Procedures

Charts for SKBO
No chart available
Charts for KMIA
No chart available

Windy.com Weather Map